Location: Sohod�
(10.7333°N, 12.5667°W)
Time: 05:12:24
(UTC+00:00)

Daily predictions for brighter satellites

Satellite Brightness Start Highest point End
(mag) Time Altitude Azimuth Time Altitude Azimuth Time Altitude Azimuth
Ariane H10+ 4.0 04:13:30 23° ESE 04:13:30 23° ESE 04:14:48 10° ESE
ASC 2 Rocket 4.0 04:34:59 72° ENE 04:34:59 72° ENE 04:42:03 10° ESE
BLOCK DM-SL R/B 3.4 04:54:00 33° SSW 04:55:36 38° SSE 05:15:53 10° E
ARIANE 5 DEB (SYLDA) 4.0 05:06:30 43° SW 05:07:27 49° S 05:10:58 10° ESE
PSLV R/B 3.8 05:08:39 10° S 05:12:50 82° WSW 05:16:59 10° NNW
Okean O Rocket 4.2 05:13:48 10° NE 05:17:11 21° E 05:20:33 10° SSE
PSLV R/B 4.4 05:14:23 10° NNE 05:18:13 57° E 05:21:58 10° S
Cosmos 1733 Rocket 2.9 05:15:29 10° N 05:19:54 74° W 05:24:19 10° S
Meteor 1-31 Rocket 2.8 05:21:04 10° N 05:24:49 52° WNW 05:25:09 50° W
ARIANE 5 DEB (SYLDA) 4.3 05:24:31 24° SSW 05:25:05 24° S 05:27:49 10° SE
Cosmos 2266 Rocket 4.0 05:19:32 10° S 05:25:46 82° E 05:31:51 10° N
Cosmos 1536 3.8 05:26:41 10° N 05:30:31 48° E 05:34:22 10° SSE
Cosmos 1900 4.4 05:26:09 10° SSW 05:31:16 86° ESE 05:36:24 10° NNE
ATLAS 3B CENTAUR R/B 2.5 05:30:44 25° W 05:34:43 47° SW 05:38:34 10° SE
CZ-2C R/B 3.0 05:32:25 10° N 05:37:01 37° WNW 05:41:43 10° SW
Cosmos 1346 Rocket 3.5 05:33:22 10° N 05:37:22 58° E 05:41:21 10° SSE
CZ-4B R/B 3.7 05:34:56 10° N 05:39:00 35° WNW 05:41:40 18° SW
Meteor PRIRODA 3.7 05:36:22 10° N 05:39:57 52° WNW 05:43:34 10° SSW
CRRES 4.2 05:39:13 33° WNW 05:40:24 85° SSW 05:47:12 10° ESE
FUSE 4.5 05:37:59 25° WNW 05:40:41 44° NNW 05:45:45 10° NE
Meteor 1-5 Rocket 4.2 05:37:45 10° NNW 05:43:16 62° W 05:48:58 10° S
Cosmos 2221 Rocket 4.1 05:40:53 10° S 05:45:14 61° E 05:49:34 10° NNE
Cosmos 1340 2.9 05:41:37 10° N 05:45:21 71° E 05:49:06 10° SSE
Cosmos 1703 Rocket 4.2 05:42:00 10° SSW 05:46:02 34° W 05:50:05 10° NNW
CZ-4B R/B 3.9 05:41:59 10° NNE 05:47:17 55° ESE 05:52:28 10° S
Cosmos 1484 Rocket 2.5 05:49:07 10° N 05:52:47 68° WNW 05:56:27 10° SSW
Cosmos 1461 2.8 05:49:25 10° NNW 05:53:36 75° WSW 05:57:57 10° SSE
Cosmos 1697 Rocket 4.0 05:48:24 10° S 05:53:41 43° ESE 05:58:58 10° NE
CZ-3 R/B 3.6 05:32:10 10° WNW 05:57:41 47° N 06:04:28 10° E
ISS -3.7 05:56:49 10° NW 06:00:05 55° SW 06:03:22 10° SSE
COSMOS 2487 3.4 05:57:50 10° NW 06:00:45 26° W 06:03:40 10° SSW
Okean 3 4.2 05:57:16 10° S 06:01:21 57° E 06:05:26 10° NNE
GPS 2-15 Rocket1 3.5 05:58:06 15° W 06:02:07 53° SSW 06:06:55 10° ESE
Cosmos 2112 Rocket 4.1 05:57:35 10° SSW 06:02:46 55° WNW 06:07:55 10° N
Cosmos 1553 Rocket 4.3 06:01:42 10° NNW 06:07:27 43° W 06:13:10 10° SSW
Cosmos 2369 4.0 06:03:30 10° S 06:09:09 75° ESE 06:14:46 10° NNE
Stardust Del rocket 4.3 06:10:32 10° SSW 06:12:41 27° SSE 06:15:40 10° E
H-2A R/B 3.5 06:10:45 10° NW 06:14:25 51° NE 06:29:50 10° ESE
Timation 2 Rocket 3.9 06:13:12 10° NNW 06:19:09 83° WSW 06:25:12 10° SSE
COSMO-SKYMED 1 3.1 06:16:58 10° SSE 06:21:16 67° ENE 06:25:33 10° N
Ariane H10 2.8 06:18:20 10° WSW 06:22:57 33° S 06:25:24 10° ESE
ARIANE 5 R/B 4.1 06:08:35 10° W 06:58:09 54° SSW 07:03:10 10° ESE
